sampling_time,wmo_synop_id,msc_id,stn_nam,stn_elev,lat,long,stn_typ,date_tm,rpt_typ,result_time,crnt_buoy_lat,crnt_buoy_lat_qa_summary,crnt_buoy_long,crnt_buoy_long_qa_summary,avg_air_temp_pst10mts,avg_air_temp_pst10mts_qa_summary,avg_sea_sfc_temp_pst10mts,avg_sea_sfc_temp_pst10mts_qa_summary,avg_batry_volt_pst10mts,avg_batry_volt_pst10mts_qa_summary,avg_solr_panl_crnt_pst10mts,avg_solr_panl_crnt_pst10mts_qa_summary,avg_wtr_lvl_snsr_volt_pst10mts,avg_wtr_lvl_snsr_volt_pst10mts_qa_summary,avg_wave_hgt_pst20mts,avg_wave_hgt_pst20mts_qa_summary,pk_wave_hgt_pst20mts,pk_wave_hgt_pst20mts_qa_summary,sig_wave_pd_pst20mts,sig_wave_pd_pst20mts_qa_summary,sig_wave_hgt_pst20mts,sig_wave_hgt_pst20mts_qa_summary,avg_max_wave_hgt_pst20mts,avg_max_wave_hgt_pst20mts_qa_summary,avg_max_wave_pd_pst20mts,avg_max_wave_pd_pst20mts_qa_summary,avg_wave_pd_pst20mts,avg_wave_pd_pst20mts_qa_summary,pk_wave_pd_pst20mts,pk_wave_pd_pst20mts_qa_summary,avg_stn_pres_pst10mts,avg_stn_pres_pst10mts_qa_summary,avg_wnd_spd_pst10mts,avg_wnd_spd_pst10mts_qa_summary,avg_wnd_dir_pst10mts,avg_wnd_dir_pst10mts_qa_summary,max_avg_wnd_spd_pst10mts,max_avg_wnd_spd_pst10mts_qa_summary,wnd_snsr_vert_disp,wnd_snsr_vert_disp_qa_summary,pres_tend_char_pst3hrs,pres_tend_char_pst3hrs_data_flag,pres_tend_amt_pst3hrs,pres_tend_amt_pst3hrs_data_flag,avg_mslp_pst10mts,avg_mslp_pst10mts_data_flag,avg_stn_pres_pst10mts_1,avg_stn_pres_pst10mts_1_qa_summary,avg_stn_pres_pst10mts_2,avg_stn_pres_pst10mts_2_qa_summary,avg_wnd_spd_pst10mts_1,avg_wnd_spd_pst10mts_1_qa_summary,avg_wnd_spd_pst10mts_2,avg_wnd_spd_pst10mts_2_qa_summary,avg_wnd_dir_pst10mts_1,avg_wnd_dir_pst10mts_1_qa_summary,avg_wnd_dir_pst10mts_2,avg_wnd_dir_pst10mts_2_qa_summary,max_avg_wnd_spd_pst10mts_1,max_avg_wnd_spd_pst10mts_1_qa_summary,max_avg_wnd_spd_pst10mts_2,max_avg_wnd_spd_pst10mts_2_qa_summary
2021-10-19T00:00:00Z,44490,9300300,WEST BAY OF FUNDY,0,44.66056,-66.3686,18,2021-10-19T00:00:00.000Z,108,2021-10-19T00:02:48.546Z,44.66518,100,-66.36403,100,12.6,100,13.2,100,12.8,100,0.0,100,3.5,100,0.5,100,1.2,100,4.2,100,0.7,100,0.9,100,4.3,100,3.5,100,3.1,100,1002.6,100,25.6,100,320,100,31.0,100,5,100,1,1,0.9,1,1002.6,1,1002.6,100,1002.6,100,25.6,100,25.9,100,320,100,320,100,31.0,100,31.0,100
2021-10-19T00:10:00Z,44490,9300300,WEST BAY OF FUNDY,0,44.66056,-66.3686,18,2021-10-19T00:10:00.000Z,110,2021-10-19T00:12:49.579Z,44.6652,100,-66.36403,100,13.3,100,13.7,100,12.8,100,0.0,100,3.5,100,,-1,,-1,,-1,,-1,,-1,,-1,,-1,,-1,1002.6,100,25.2,100,316,100,29.2,100,5,100,2,1,1.0,1,1002.6,1,1002.6,100,1002.6,100,25.2,100,25.2,100,316,100,317,100,29.2,100,29.2,100
2021-10-19T00:20:00Z,44490,9300300,WEST BAY OF FUNDY,0,44.66056,-66.3686,18,2021-10-19T00:20:00.000Z,110,2021-10-19T00:22:52.654Z,44.6652,100,-66.36405,100,12.6,100,13.2,100,12.8,100,0.0,100,3.5,100,,-1,,-1,,-1,,-1,,-1,,-1,,-1,,-1,1002.7,100,24.1,100,317,100,28.8,100,5,100,2,1,1.1,1,1002.7,1,1002.7,100,1002.6,100,24.1,100,24.5,100,317,100,318,100,28.8,100,29.2,100
2021-10-19T00:30:00Z,44490,9300300,WEST BAY OF FUNDY,0,44.66056,-66.3686,18,2021-10-19T00:30:00.000Z,110,2021-10-19T00:33:55.084Z,44.6652,100,-66.36402,100,12.6,100,13.2,100,12.8,100,0.0,100,3.5,100,,-1,,-1,,-1,,-1,,-1,,-1,,-1,,-1,1002.7,100,25.6,100,319,100,31.0,100,5,100,1,1,1.1,1,1002.7,1,1002.7,100,1002.7,100,25.6,100,25.9,100,319,100,320,100,31.0,100,31.0,100
2021-10-19T00:40:00Z,44490,9300300,WEST BAY OF FUNDY,0,44.66056,-66.3686,18,2021-10-19T00:40:00.000Z,110,2021-10-19T00:43:53.518Z,44.66515,100,-66.36397,100,12.5,100,13.2,100,12.8,100,0.0,100,3.5,100,,-1,,-1,,-1,,-1,,-1,,-1,,-1,,-1,1002.8,100,27.7,100,318,100,33.1,100,5,100,1,1,1.0,1,1002.8,1,1002.8,100,1002.7,100,27.7,100,27.7,100,318,100,319,100,33.1,100,33.5,100
2021-10-19T00:50:00Z,44490,9300300,WEST BAY OF FUNDY,0,44.66056,-66.3686,18,2021-10-19T00:50:00.000Z,110,2021-10-19T00:53:02.011Z,44.66515,100,-66.36393000000001,100,12.4,100,13.2,100,12.8,100,0.0,100,3.5,100,,-1,,-1,,-1,,-1,,-1,,-1,,-1,,-1,1002.8,100,24.1,100,314,100,29.9,100,5,100,1,1,1.0,1,1002.8,1,1002.8,100,1002.8,100,24.1,100,24.5,100,314,100,315,100,29.9,100,29.9,100
2021-10-19T01:00:00Z,44490,9300300,WEST BAY OF FUNDY,0,44.66056,-66.3686,18,2021-10-19T01:00:00.000Z,108,2021-10-19T01:02:56.434Z,44.66515,100,-66.36397,100,12.4,100,13.2,100,12.8,100,0.0,100,3.5,100,0.6,100,1.4,100,4.2,100,0.8,100,1.0,100,4.1,100,3.6,100,4.0,100,1002.9,100,25.2,100,319,100,30.2,100,5,100,1,1,1.0,1,1002.9,1,1002.9,100,1002.8,100,25.2,100,25.6,100,319,100,319,100,30.2,100,30.6,100
2021-10-19T01:10:00Z,44490,9300300,WEST BAY OF FUNDY,0,44.66056,-66.3686,18,2021-10-19T01:10:00.000Z,110,2021-10-19T01:15:56.939Z,44.66518,100,-66.36399999999999,100,12.3,100,13.2,100,12.8,100,0.0,100,3.5,100,,-1,,-1,,-1,,-1,,-1,,-1,,-1,,-1,1002.9,100,26.6,100,322,100,31.3,100,5,100,1,1,0.9,1,1002.9,1,1002.9,100,1002.8,100,26.6,100,26.6,100,322,100,323,100,31.3,100,31.0,100
2021-10-19T01:20:00Z,44490,9300300,WEST BAY OF FUNDY,0,44.66056,-66.3686,18,2021-10-19T01:20:00.000Z,110,2021-10-19T01:23:11.611Z,44.66515,100,-66.36408,100,12.2,100,13.2,100,12.8,100,0.0,100,3.5,100,,-1,,-1,,-1,,-1,,-1,,-1,,-1,,-1,1002.9,100,24.5,100,327,100,30.2,100,5,100,1,1,0.9,1,1002.9,1,1002.9,100,1002.8,100,24.5,100,24.5,100,327,100,328,100,30.2,100,30.2,100
2021-10-19T01:30:00Z,44490,9300300,WEST BAY OF FUNDY,0,44.66056,-66.3686,18,2021-10-19T01:30:00.000Z,110,2021-10-19T01:34:17.653Z,44.66515,100,-66.36412,100,12.1,100,13.1,100,12.8,100,0.0,100,3.5,100,,-1,,-1,,-1,,-1,,-1,,-1,,-1,,-1,1002.9,100,24.8,100,331,100,29.2,100,5,100,1,1,0.8,1,1002.9,1,1002.9,100,1002.9,100,24.8,100,24.5,100,331,100,332,100,29.2,100,29.2,100
2021-10-19T01:40:00Z,44490,9300300,WEST BAY OF FUNDY,0,44.66056,-66.3686,18,2021-10-19T01:40:00.000Z,110,2021-10-19T01:44:11.019Z,44.66513,100,-66.36413,100,12.0,100,13.1,100,12.8,100,0.0,100,3.5,100,,-1,,-1,,-1,,-1,,-1,,-1,,-1,,-1,1002.9,100,25.9,100,327,100,31.0,100,5,100,2,1,0.7,1,1002.9,1,1002.9,100,1002.9,100,25.9,100,25.6,100,327,100,328,100,31.0,100,31.3,100
2021-10-19T01:50:00Z,44490,9300300,WEST BAY OF FUNDY,0,44.66056,-66.3686,18,2021-10-19T01:50:00.000Z,110,2021-10-19T01:54:17.362Z,44.66518,100,-66.36418,100,12.0,100,13.1,100,12.8,100,0.0,100,3.5,100,,-1,,-1,,-1,,-1,,-1,,-1,,-1,,-1,1003.0,100,27.4,100,326,100,32.0,100,5,100,2,1,0.6,1,1003.0,1,1003.0,100,1002.9,100,27.4,100,26.6,100,326,100,327,100,32.0,100,31.7,100
2021-10-19T02:00:00Z,44490,9300300,WEST BAY OF FUNDY,0,44.66056,-66.3686,18,2021-10-19T02:00:00.000Z,108,2021-10-19T02:03:18.609Z,44.66522,100,-66.36437,100,11.9,100,13.1,100,12.8,100,0.0,100,3.5,100,0.6,100,1.7,100,4.1,100,0.9,100,1.2,100,4.4,100,3.6,100,3.5,100,1003.0,100,26.6,100,328,100,31.3,100,5,100,2,1,0.5,1,1003.0,1,1003.0,100,1002.9,100,26.6,100,25.9,100,328,100,329,100,31.3,100,31.3,100
2021-10-19T02:10:00Z,44490,9300300,WEST BAY OF FUNDY,0,44.66056,-66.3686,18,2021-10-19T02:10:00.000Z,110,2021-10-19T02:15:31.466Z,44.66522,100,-66.36455,100,11.9,100,13.1,100,12.8,100,0.0,100,3.5,100,,-1,,-1,,-1,,-1,,-1,,-1,,-1,,-1,1002.9,100,25.6,100,331,100,31.3,100,5,100,1,1,0.5,1,1002.9,1,1002.9,100,1002.9,100,25.6,100,25.2,100,331,100,332,100,31.3,100,31.0,100
2021-10-19T02:20:00Z,44490,9300300,WEST BAY OF FUNDY,0,44.66056,-66.3686,18,2021-10-19T02:20:00.000Z,110,2021-10-19T02:24:24.396Z,44.66527,100,-66.36493,100,11.8,100,13.1,100,12.8,100,0.0,100,3.5,100,,-1,,-1,,-1,,-1,,-1,,-1,,-1,,-1,1002.9,100,26.6,100,329,100,31.3,100,5,100,1,1,0.6,1,1002.9,1,1002.9,100,1002.9,100,26.6,100,25.9,100,329,100,330,100,31.3,100,30.6,100
2021-10-19T02:30:00Z,44490,9300300,WEST BAY OF FUNDY,0,44.66056,-66.3686,18,2021-10-19T02:30:00.000Z,110,2021-10-19T02:32:39.232Z,44.6652,100,-66.36545,100,11.7,100,13.1,100,12.8,100,0.0,100,3.5,100,,-1,,-1,,-1,,-1,,-1,,-1,,-1,,-1,1002.9,100,27.0,100,325,100,30.6,100,5,100,1,1,0.5,1,1002.9,1,1002.9,100,1002.9,100,27.0,100,26.3,100,325,100,326,100,30.6,100,30.6,100
2021-10-19T02:40:00Z,44490,9300300,WEST BAY OF FUNDY,0,44.66056,-66.3686,18,2021-10-19T02:40:00.000Z,110,2021-10-19T02:45:33.715Z,44.66503,100,-66.36603000000001,100,11.6,100,13.1,100,12.8,100,0.0,100,3.5,100,,-1,,-1,,-1,,-1,,-1,,-1,,-1,,-1,1002.9,100,27.0,100,325,100,31.7,100,5,100,1,1,0.4,1,1002.9,1,1002.9,100,1002.9,100,27.0,100,26.3,100,325,100,326,100,31.7,100,32.4,100
2021-10-19T02:50:00Z,44490,9300300,WEST BAY OF FUNDY,0,44.66056,-66.3686,18,2021-10-19T02:50:00.000Z,110,2021-10-19T02:52:43.053Z,44.66482,100,-66.36658,100,11.6,100,13.1,100,12.7,100,0.0,100,3.5,100,,-1,,-1,,-1,,-1,,-1,,-1,,-1,,-1,1003.0,100,25.2,100,327,100,30.6,100,5,100,1,1,0.5,1,1003.0,1,1003.0,100,1002.9,100,25.2,100,23.8,100,327,100,328,100,30.6,100,28.4,100
2021-10-19T03:00:00Z,44490,9300300,WEST BAY OF FUNDY,0,44.66056,-66.3686,18,2021-10-19T03:00:00.000Z,108,2021-10-19T03:02:43.277Z,44.66455,100,-66.36686999999999,100,11.7,100,13.0,100,12.7,100,0.0,100,3.5,100,0.6,100,1.4,100,4.0,100,0.9,100,1.1,100,3.9,100,3.7,100,3.7,100,1003.0,100,24.1,100,316,100,31.3,100,5,100,1,1,0.4,1,1003.0,1,1003.0,100,1002.9,100,24.1,100,23.4,100,316,100,318,100,31.3,100,31.7,100
2021-10-19T03:10:00Z,44490,9300300,WEST BAY OF FUNDY,0,44.66056,-66.3686,18,2021-10-19T03:10:00.000Z,110,2021-10-19T03:15:44.624Z,44.6641,100,-66.3671,100,11.6,100,13.0,100,12.8,100,0.0,100,3.5,100,,-1,,-1,,-1,,-1,,-1,,-1,,-1,,-1,1002.9,100,26.3,100,320,100,32.8,100,5,100,0,1,0.2,1,1002.9,1,1002.9,100,1002.8,100,26.3,100,25.2,100,320,100,321,100,32.8,100,32.0,100
2021-10-19T03:20:00Z,44490,9300300,WEST BAY OF FUNDY,0,44.66056,-66.3686,18,2021-10-19T03:20:00.000Z,110,2021-10-19T03:22:50.373Z,44.66385,100,-66.36713,100,11.6,100,13.0,100,12.8,100,0.0,100,3.5,100,,-1,,-1,,-1,,-1,,-1,,-1,,-1,,-1,1002.8,100,28.4,100,310,100,34.6,100,5,100,0,1,0.1,1,1002.8,1,1002.8,100,1002.8,100,28.4,100,28.8,100,310,100,312,100,34.6,100,35.3,100
2021-10-19T03:30:00Z,44490,9300300,WEST BAY OF FUNDY,0,44.66056,-66.3686,18,2021-10-19T03:30:00.000Z,110,2021-10-19T03:32:45.207Z,44.6638,100,-66.36715,100,11.5,100,13.0,100,12.8,100,0.0,100,3.5,100,,-1,,-1,,-1,,-1,,-1,,-1,,-1,,-1,1002.9,100,28.4,100,313,100,33.5,100,5,100,1,1,0.1,1,1002.9,1,1002.9,100,1002.8,100,28.4,100,28.1,100,313,100,315,100,33.5,100,33.8,100
2021-10-19T03:40:00Z,44490,9300300,WEST BAY OF FUNDY,0,44.66056,-66.3686,18,2021-10-19T03:40:00.000Z,110,2021-10-19T03:42:44.997Z,44.66375,100,-66.36713,100,11.3,100,13.1,100,12.7,100,0.0,100,3.5,100,,-1,,-1,,-1,,-1,,-1,,-1,,-1,,-1,1002.9,100,29.9,100,316,100,36.0,100,5,100,1,1,0.1,1,1002.9,1,1002.9,100,1002.8,100,29.9,100,28.4,100,316,100,317,100,36.0,100,34.9,100
2021-10-19T03:50:00Z,44490,9300300,WEST BAY OF FUNDY,0,44.66056,-66.3686,18,2021-10-19T03:50:00.000Z,110,2021-10-19T03:53:46.292Z,44.66363,100,-66.36715,100,11.3,100,13.1,100,12.7,100,0.0,100,3.5,100,,-1,,-1,,-1,,-1,,-1,,-1,,-1,,-1,1002.9,100,30.2,100,306,100,36.7,100,5,100,0,1,0.1,1,1002.9,1,1002.9,100,1002.9,100,30.2,100,30.6,100,306,100,308,100,36.7,100,37.8,100
2021-10-19T04:00:00Z,44490,9300300,WEST BAY OF FUNDY,0,44.66056,-66.3686,18,2021-10-19T04:00:00.000Z,108,2021-10-19T04:02:47.187Z,44.663270000000004,100,-66.367,100,11.1,100,13.1,100,12.7,100,0.0,100,3.5,100,0.6,100,1.8,100,4.1,100,0.9,100,1.1,100,4.1,100,3.7,100,4.0,100,1003.0,100,30.2,100,311,100,34.9,100,5,100,1,1,0.1,1,1003.0,1,1003.0,100,1002.9,100,30.2,100,29.2,100,311,100,312,100,34.9,100,34.2,100
2021-10-19T04:10:00Z,44490,9300300,WEST BAY OF FUNDY,0,44.66056,-66.3686,18,2021-10-19T04:10:00.000Z,110,2021-10-19T04:15:58.517Z,44.66308,100,-66.36685,100,10.9,100,13.1,100,12.8,100,0.0,100,3.5,100,,-1,,-1,,-1,,-1,,-1,,-1,,-1,,-1,1003.1,100,29.5,100,309,100,36.0,100,5,100,3,1,0.2,1,1003.1,1,1003.1,100,1003.0,100,29.5,100,28.8,100,309,100,310,100,36.0,100,35.6,100
2021-10-19T04:20:00Z,44490,9300300,WEST BAY OF FUNDY,0,44.66056,-66.3686,18,2021-10-19T04:20:00.000Z,110,2021-10-19T04:23:00.020Z,44.66295,100,-66.36675,100,10.8,100,13.1,100,12.7,100,0.0,100,3.5,100,,-1,,-1,,-1,,-1,,-1,,-1,,-1,,-1,1003.1,100,28.8,100,313,100,33.5,100,5,100,3,1,0.2,1,1003.1,1,1003.1,100,1003.1,100,28.8,100,27.4,100,313,100,314,100,33.5,100,34.2,100
2021-10-19T04:30:00Z,44490,9300300,WEST BAY OF FUNDY,0,44.66056,-66.3686,18,2021-10-19T04:30:00.000Z,110,2021-10-19T04:35:08.380Z,44.6628,100,-66.36662,100,10.9,100,13.1,100,12.7,100,0.0,100,3.5,100,,-1,,-1,,-1,,-1,,-1,,-1,,-1,,-1,1003.1,100,28.8,100,307,100,33.1,100,5,100,3,1,0.2,1,1003.1,1,1003.1,100,1003.1,100,28.8,100,29.2,100,307,100,309,100,33.1,100,33.1,100
2021-10-19T04:40:00Z,44490,9300300,WEST BAY OF FUNDY,0,44.66056,-66.3686,18,2021-10-19T04:40:00.000Z,110,2021-10-19T04:44:03.456Z,44.66285,100,-66.36655,100,10.9,100,13.1,100,12.7,100,0.0,100,3.5,100,,-1,,-1,,-1,,-1,,-1,,-1,,-1,,-1,1003.3,100,29.2,100,318,100,34.9,100,5,100,3,1,0.3,1,1003.3,1,1003.3,100,1003.2,100,29.2,100,27.4,100,318,100,319,100,34.9,100,34.2,100
2021-10-19T04:50:00Z,44490,9300300,WEST BAY OF FUNDY,0,44.66056,-66.3686,18,2021-10-19T04:50:00.000Z,110,2021-10-19T04:53:12.741Z,44.66263,100,-66.36636999999999,100,10.8,100,13.1,100,12.7,100,0.0,100,3.5,100,,-1,,-1,,-1,,-1,,-1,,-1,,-1,,-1,1003.3,100,29.5,100,313,100,34.2,100,5,100,3,1,0.3,1,1003.3,1,1003.3,100,1003.2,100,29.5,100,28.8,100,313,100,314,100,34.2,100,34.6,100
2021-10-19T05:00:00Z,44490,9300300,WEST BAY OF FUNDY,0,44.66056,-66.3686,18,2021-10-19T05:00:00.000Z,108,2021-10-19T05:03:04.553Z,44.66265,100,-66.36633,100,10.7,100,13.1,100,12.7,100,0.0,100,3.5,100,0.6,100,1.5,100,4.0,100,0.9,100,1.1,100,4.0,100,3.6,100,4.1,100,1003.3,100,29.5,100,317,100,33.8,100,5,100,3,1,0.3,1,1003.3,1,1003.3,100,1003.3,100,29.5,100,28.4,100,317,100,319,100,33.8,100,34.2,100
2021-10-19T05:10:00Z,44490,9300300,WEST BAY OF FUNDY,0,44.66056,-66.3686,18,2021-10-19T05:10:00.000Z,110,2021-10-19T05:16:10.454Z,44.66263,100,-66.3663,100,10.8,100,13.1,100,12.7,100,0.0,100,3.5,100,,-1,,-1,,-1,,-1,,-1,,-1,,-1,,-1,1003.3,100,29.2,100,316,100,34.2,100,5,100,3,1,0.4,1,1003.3,1,1003.3,100,1003.3,100,29.2,100,28.1,100,316,100,318,100,34.2,100,34.2,100
2021-10-19T05:20:00Z,44490,9300300,WEST BAY OF FUNDY,0,44.66056,-66.3686,18,2021-10-19T05:20:00.000Z,110,2021-10-19T05:23:09.024Z,44.66258,100,-66.36623,100,10.8,100,13.1,100,12.7,100,0.0,100,3.5,100,,-1,,-1,,-1,,-1,,-1,,-1,,-1,,-1,1003.3,100,29.5,100,314,100,34.2,100,5,100,3,1,0.3,1,1003.3,1,1003.3,100,1003.2,100,29.5,100,28.4,100,314,100,316,100,34.2,100,34.6,100
2021-10-19T05:30:00Z,44490,9300300,WEST BAY OF FUNDY,0,44.66056,-66.3686,18,2021-10-19T05:30:00.000Z,110,2021-10-19T05:34:21.599Z,44.66265,100,-66.36622,100,10.9,100,13.1,100,12.7,100,0.0,100,3.5,100,,-1,,-1,,-1,,-1,,-1,,-1,,-1,,-1,1003.3,100,29.9,100,322,100,36.7,100,5,100,3,1,0.4,1,1003.3,1,1003.3,100,1003.3,100,29.9,100,27.7,100,322,100,323,100,36.7,100,34.9,100
2021-10-19T05:40:00Z,44490,9300300,WEST BAY OF FUNDY,0,44.66056,-66.3686,18,2021-10-19T05:40:00.000Z,110,2021-10-19T05:44:25.267Z,44.66258,100,-66.36607,100,11.0,100,13.1,100,12.7,100,0.0,100,3.5,100,,-1,,-1,,-1,,-1,,-1,,-1,,-1,,-1,1003.3,100,30.6,100,330,100,36.0,100,5,100,3,1,0.4,1,1003.3,1,1003.3,100,1003.2,100,30.6,100,27.7,100,330,100,332,100,36.0,100,34.6,100
2021-10-19T05:50:00Z,44490,9300300,WEST BAY OF FUNDY,0,44.66056,-66.3686,18,2021-10-19T05:50:00.000Z,110,2021-10-19T05:54:22.764Z,44.6626,100,-66.36607,100,11.0,100,13.0,100,12.7,100,0.0,100,3.5,100,,-1,,-1,,-1,,-1,,-1,,-1,,-1,,-1,1003.3,100,30.6,100,329,100,37.4,100,5,100,3,1,0.3,1,1003.3,1,1003.3,100,1003.3,100,30.6,100,28.1,100,329,100,330,100,37.4,100,37.1,100
2021-10-19T06:00:00Z,44490,9300300,WEST BAY OF FUNDY,0,44.66056,-66.3686,18,2021-10-19T06:00:00.000Z,108,2021-10-19T06:02:23.552Z,44.66257,100,-66.366,100,10.9,100,13.0,100,12.7,100,0.0,100,3.5,100,0.5,100,1.3,100,3.8,100,0.8,100,1.0,100,3.8,100,3.5,100,3.8,100,1003.4,100,33.5,100,333,100,38.9,100,5,100,3,1,0.4,1,1003.4,1,1003.4,100,1003.3,100,33.5,100,30.6,100,333,100,335,100,38.9,100,38.5,100
2021-10-19T06:10:00Z,44490,9300300,WEST BAY OF FUNDY,0,44.66056,-66.3686,18,2021-10-19T06:10:00.000Z,110,2021-10-19T06:15:27.372Z,44.66252,100,-66.36593,100,10.9,100,13.0,100,12.7,100,0.0,100,3.5,100,,-1,,-1,,-1,,-1,,-1,,-1,,-1,,-1,1003.4,100,32.0,100,337,100,37.1,100,5,100,1,1,0.5,1,1003.4,1,1003.4,100,1003.3,100,32.0,100,29.9,100,337,100,338,100,37.1,100,36.4,100
2021-10-19T06:20:00Z,44490,9300300,WEST BAY OF FUNDY,0,44.66056,-66.3686,18,2021-10-19T06:20:00.000Z,110,2021-10-19T06:24:31.440Z,44.66252,100,-66.36596999999999,100,10.8,100,12.9,100,12.7,100,0.0,100,3.5,100,,-1,,-1,,-1,,-1,,-1,,-1,,-1,,-1,1003.4,100,30.6,100,328,100,40.0,100,5,100,1,1,0.6,1,1003.4,1,1003.4,100,1003.4,100,30.6,100,28.1,100,328,100,330,100,40.0,100,34.6,100
2021-10-19T06:30:00Z,44490,9300300,WEST BAY OF FUNDY,0,44.66056,-66.3686,18,2021-10-19T06:30:00.000Z,110,2021-10-19T06:33:31.993Z,44.66255,100,-66.36598000000001,100,10.6,100,12.9,100,12.7,100,0.0,100,3.5,100,,-1,,-1,,-1,,-1,,-1,,-1,,-1,,-1,1003.4,100,32.0,100,321,100,39.2,100,5,100,1,1,0.6,1,1003.4,1,1003.4,100,1003.4,100,32.0,100,29.5,100,321,100,322,100,39.2,100,37.8,100
2021-10-19T06:40:00Z,44490,9300300,WEST BAY OF FUNDY,0,44.66056,-66.3686,18,2021-10-19T06:40:00.000Z,110,2021-10-19T06:44:27.145Z,44.66247,100,-66.36595,100,10.5,100,12.9,100,12.7,100,0.0,100,3.5,100,,-1,,-1,,-1,,-1,,-1,,-1,,-1,,-1,1003.4,100,30.2,100,327,100,36.4,100,5,100,1,1,0.6,1,1003.4,1,1003.4,100,1003.4,100,30.2,100,27.7,100,327,100,328,100,36.4,100,35.3,100
2021-10-19T06:50:00Z,44490,9300300,WEST BAY OF FUNDY,0,44.66056,-66.3686,18,2021-10-19T06:50:00.000Z,110,2021-10-19T06:53:40.805Z,44.66248,100,-66.36591999999999,100,10.4,100,12.9,100,12.7,100,0.0,100,3.5,100,,-1,,-1,,-1,,-1,,-1,,-1,,-1,,-1,1003.5,100,28.1,100,322,100,33.5,100,5,100,1,1,0.6,1,1003.5,1,1003.5,100,1003.5,100,28.1,100,26.3,100,322,100,323,100,33.5,100,32.8,100
2021-10-19T07:00:00Z,44490,9300300,WEST BAY OF FUNDY,0,44.66056,-66.3686,18,2021-10-19T07:00:00.000Z,108,2021-10-19T07:03:42.293Z,44.66245,100,-66.36591999999999,100,10.2,100,12.9,100,12.7,100,0.0,100,3.5,100,0.5,100,1.5,100,4.0,100,0.8,100,1.0,100,4.1,100,3.5,100,4.2,100,1003.5,100,27.0,100,316,100,33.8,100,5,100,1,1,0.6,1,1003.5,1,1003.5,100,1003.5,100,27.0,100,26.6,100,316,100,318,100,33.8,100,34.2,100
2021-10-19T07:10:00Z,44490,9300300,WEST BAY OF FUNDY,0,44.66056,-66.3686,18,2021-10-19T07:10:00.000Z,110,2021-10-19T07:16:43.489Z,44.66247,100,-66.366,100,10.2,100,13.0,100,12.7,100,0.0,100,3.5,100,,-1,,-1,,-1,,-1,,-1,,-1,,-1,,-1,1003.6,100,25.9,100,320,100,32.0,100,5,100,2,1,0.5,1,1003.6,1,1003.6,100,1003.5,100,25.9,100,25.6,100,320,100,322,100,32.0,100,30.6,100
2021-10-19T07:20:00Z,44490,9300300,WEST BAY OF FUNDY,0,44.66056,-66.3686,18,2021-10-19T07:20:00.000Z,110,2021-10-19T07:22:42.218Z,44.66245,100,-66.36591999999999,100,10.1,100,13.0,100,12.7,100,0.0,100,3.5,100,,-1,,-1,,-1,,-1,,-1,,-1,,-1,,-1,1003.5,100,27.0,100,313,100,35.6,100,5,100,1,1,0.4,1,1003.5,1,1003.5,100,1003.5,100,27.0,100,27.0,100,313,100,314,100,35.6,100,36.4,100
2021-10-19T07:30:00Z,44490,9300300,WEST BAY OF FUNDY,0,44.66056,-66.3686,18,2021-10-19T07:30:00.000Z,110,2021-10-19T07:32:46.329Z,44.66245,100,-66.36591999999999,100,10.0,100,13.1,100,12.7,100,0.0,100,3.5,100,,-1,,-1,,-1,,-1,,-1,,-1,,-1,,-1,1003.6,100,27.0,100,314,100,34.6,100,5,100,2,1,0.4,1,1003.6,1,1003.6,100,1003.5,100,27.0,100,27.0,100,314,100,315,100,34.6,100,34.9,100
2021-10-19T07:40:00Z,44490,9300300,WEST BAY OF FUNDY,0,44.66056,-66.3686,18,2021-10-19T07:40:00.000Z,110,2021-10-19T07:43:47.009Z,44.66247,100,-66.36596999999999,100,10.0,100,13.1,100,12.7,100,0.0,100,3.5,100,,-1,,-1,,-1,,-1,,-1,,-1,,-1,,-1,1003.5,100,26.3,100,312,100,34.2,100,5,100,3,1,0.3,1,1003.5,1,1003.5,100,1003.5,100,26.3,100,26.3,100,312,100,314,100,34.2,100,34.9,100
2021-10-19T07:50:00Z,44490,9300300,WEST BAY OF FUNDY,0,44.66056,-66.3686,18,2021-10-19T07:50:00.000Z,110,2021-10-19T07:52:49.513Z,44.66245,100,-66.36601999999999,100,9.9,100,13.1,100,12.7,100,0.0,100,3.5,100,,-1,,-1,,-1,,-1,,-1,,-1,,-1,,-1,1003.6,100,27.0,100,315,100,34.9,100,5,100,2,1,0.3,1,1003.6,1,1003.6,100,1003.5,100,27.0,100,26.3,100,315,100,316,100,34.9,100,35.6,100
2021-10-19T08:00:00Z,44490,9300300,WEST BAY OF FUNDY,0,44.66056,-66.3686,18,2021-10-19T08:00:00.000Z,108,2021-10-19T08:02:49.117Z,44.66248,100,-66.36607,100,9.9,100,13.1,100,12.7,100,0.0,100,3.5,100,0.6,100,1.4,100,4.1,100,0.9,100,1.1,100,4.0,100,3.6,100,4.3,100,1003.7,100,27.7,100,320,100,32.4,100,5,100,3,1,0.4,1,1003.7,1,1003.7,100,1003.7,100,27.7,100,25.9,100,320,100,321,100,32.4,100,32.8,100
2021-10-19T08:10:00Z,44490,9300300,WEST BAY OF FUNDY,0,44.66056,-66.3686,18,2021-10-19T08:10:00.000Z,110,2021-10-19T08:15:59.024Z,44.66252,100,-66.36607,100,9.9,100,13.1,100,12.7,100,0.0,100,3.5,100,,-1,,-1,,-1,,-1,,-1,,-1,,-1,,-1,1003.8,100,28.1,100,324,100,35.3,100,5,100,3,1,0.5,1,1003.8,1,1003.8,100,1003.8,100,28.1,100,26.3,100,324,100,325,100,35.3,100,33.8,100
2021-10-19T08:20:00Z,44490,9300300,WEST BAY OF FUNDY,0,44.66056,-66.3686,18,2021-10-19T08:20:00.000Z,110,2021-10-19T08:23:03.595Z,44.66255,100,-66.36617,100,9.9,100,13.1,100,12.7,100,0.0,100,3.5,100,,-1,,-1,,-1,,-1,,-1,,-1,,-1,,-1,1003.9,100,27.4,100,319,100,33.1,100,5,100,3,1,0.6,1,1003.9,1,1003.9,100,1003.8,100,27.4,100,25.9,100,319,100,320,100,33.1,100,33.1,100
2021-10-19T08:30:00Z,44490,9300300,WEST BAY OF FUNDY,0,44.66056,-66.3686,18,2021-10-19T08:30:00.000Z,110,2021-10-19T08:33:01.835Z,44.6626,100,-66.36617,100,9.9,100,13.1,100,12.7,100,0.0,100,3.5,100,,-1,,-1,,-1,,-1,,-1,,-1,,-1,,-1,1003.9,100,27.4,100,320,100,31.7,100,5,100,3,1,0.6,1,1003.9,1,1003.9,100,1003.9,100,27.4,100,25.6,100,320,100,322,100,31.7,100,31.3,100
2021-10-19T08:40:00Z,44490,9300300,WEST BAY OF FUNDY,0,44.66056,-66.3686,18,2021-10-19T08:40:00.000Z,110,2021-10-19T08:43:05.316Z,44.66263,100,-66.36612,100,9.9,100,13.1,100,12.7,100,0.0,100,3.5,100,,-1,,-1,,-1,,-1,,-1,,-1,,-1,,-1,1004.0,100,27.0,100,316,100,33.5,100,5,100,3,1,0.7,1,1004.0,1,1004.0,100,1003.9,100,27.0,100,25.6,100,316,100,317,100,33.5,100,31.3,100
2021-10-19T08:50:00Z,44490,9300300,WEST BAY OF FUNDY,0,44.66056,-66.3686,18,2021-10-19T08:50:00.000Z,110,2021-10-19T08:55:07.403Z,44.66263,100,-66.36598000000001,100,9.8,100,13.1,100,12.7,100,0.0,100,3.5,100,,-1,,-1,,-1,,-1,,-1,,-1,,-1,,-1,1003.9,100,28.8,100,312,100,35.3,100,5,100,3,1,0.6,1,1003.9,1,1003.9,100,1003.9,100,28.8,100,27.0,100,312,100,314,100,35.3,100,33.8,100
2021-10-19T09:00:00Z,44490,9300300,WEST BAY OF FUNDY,0,44.66056,-66.3686,18,2021-10-19T09:00:00.000Z,108,2021-10-19T09:03:04.320Z,44.66263,100,-66.36561999999999,100,9.8,100,13.1,100,12.7,100,0.0,100,3.5,100,0.6,100,1.5,100,4.0,100,0.9,100,1.1,100,3.9,100,3.6,100,4.3,100,1004.0,100,28.8,100,319,100,36.0,100,5,100,3,1,0.6,1,1004.0,1,1004.0,100,1003.9,100,28.8,100,26.3,100,319,100,321,100,36.0,100,35.6,100
2021-10-19T09:10:00Z,44490,9300300,WEST BAY OF FUNDY,0,44.66056,-66.3686,18,2021-10-19T09:10:00.000Z,110,2021-10-19T09:18:06.302Z,44.66267,100,-66.3652,100,9.8,100,13.1,100,12.7,100,0.0,100,3.5,100,,-1,,-1,,-1,,-1,,-1,,-1,,-1,,-1,1004.0,100,28.4,100,323,100,35.3,100,5,100,2,1,0.6,1,1004.0,1,1004.0,100,1003.9,100,28.4,100,26.3,100,323,100,324,100,35.3,100,34.9,100
2021-10-19T09:20:00Z,44490,9300300,WEST BAY OF FUNDY,0,44.66056,-66.3686,18,2021-10-19T09:20:00.000Z,110,2021-10-19T09:24:05.483Z,44.66285,100,-66.36462,100,9.7,100,13.1,100,12.7,100,0.0,100,3.5,100,,-1,,-1,,-1,,-1,,-1,,-1,,-1,,-1,1004.0,100,28.8,100,318,100,34.2,100,5,100,2,1,0.6,1,1004.0,1,1004.0,100,1004.0,100,28.8,100,26.6,100,318,100,319,100,34.2,100,33.8,100
2021-10-19T09:30:00Z,44490,9300300,WEST BAY OF FUNDY,0,44.66056,-66.3686,18,2021-10-19T09:30:00.000Z,110,2021-10-19T09:33:17.879Z,44.66313,100,-66.36417,100,9.7,100,13.1,100,12.7,100,0.0,100,3.5,100,,-1,,-1,,-1,,-1,,-1,,-1,,-1,,-1,1004.0,100,27.0,100,318,100,33.1,100,5,100,2,1,0.6,1,1004.0,1,1004.0,100,1004.0,100,27.0,100,25.6,100,318,100,319,100,33.1,100,32.8,100